Regional Weather Roundup
Issued by NWS

Home | Current Version | Previous Version | Text Only | Print | Product List | Glossary Off
Versions: 1 2 3 4 5 6 7 8 9 10 11 12 13 14 15 16 17 18 19 20 21 22 23 24 25 26 27 28 29 30 31 32 33 34 35 36 37 38 39 40 41 42 43 44 45 46 47 48 49 50

000
ASUS43 KLMK 251902
RWRKY
KENTUCKY REGIONAL WEATHER ROUNDUP
NATIONAL WEATHER SERVICE LOUISVILLE KY
300 PM EDT THU AUG 25 2016

NOTE "FAIR" INDICATES FEW OR NO CLOUDS BELOW 12,000 FEET
WITH NO SIGNIFICANT WEATHER AND/OR OBSTRUCTIONS TO VISIBILITY.

KYZ001>023-026-027-061>063-070>075-252000-
WESTERN AND SOUTH CENTRAL KENTUCKY

CITY           SKY/WX    TMP DP  RH WIND       PRES   REMARKS
PADUCAH        MOSUNNY   91  73  55 W7        30.09F HX  99
HENDERSON      MOSUNNY   93  70  46 W7        30.07F HX  99
OWENSBORO      MOSUNNY   93  74  54 W12       30.10F HX 102
HOPKINSVILLE   SUNNY     91  73  54 W9        30.11F HX  99
BOWLING GREEN  MOSUNNY   93  73  52 SW9       30.11F HX 102
GLASGOW        MOSUNNY   91  72  53 W8        30.12F HX  99
$$

KYZ024-025-028>034-038-045-046-053-252000-
NORTH CENTRAL KENTUCKY

CITY           SKY/WX    TMP DP  RH WIND       PRES   REMARKS
LOUISVILLE/SDF MOSUNNY   92  68  45 W16       30.09S HX  96
LOUISVILLE/LOU SUNNY     92  68  45 W9G17     30.09F HX  96
FORT KNOX      SUNNY     91  71  53 SW9       30.10S HX  97
$$

KYZ035>037-039>044-047>052-055>060-089>105-252000-
NORTHEAST KENTUCKY

CITY           SKY/WX    TMP DP  RH WIND       PRES   REMARKS
LEXINGTON      MOSUNNY   91  70  49 SW8G17    30.12F HX  96
COVINGTON      PTSUNNY   89  74  60 SW12      30.09S HX  98
FRANKFORT      MOSUNNY   91  70  49 SW12G17   30.10F HX  96
$$

KYZ054-064>069-076>088-106>120-252000-
SOUTHEAST KENTUCKY

CITY           SKY/WX    TMP DP  RH WIND       PRES   REMARKS
JACKSON        MOSUNNY   87  73  62 CALM      30.16F HX  94
LONDON         MOSUNNY   89  69  51 W12       30.15F HX  93
SOMERSET       PTSUNNY   86  70  58 NW7       30.15F HX  90
MIDDLESBORO    CLOUDY    82  76  82 NE5       30.17F
MONTICELLO     PTCLDY   N/A N/A N/A N14       30.15F
$$





USA.gov is the U.S. government's official web portal to all federal, state and local government web resources and services.